KE0TRL Weather Reports


time (UTC)temp
C
wind
direction
speed
KPH
gust
KPH
rain 1hr
cm
rain 24hr
cm
rain mn
cm
humidity
%
barometer
mb
20240222104504 6 315 1.6 3.2 0.00 0.00 0.00 56 1008.1
20240222104302 6 225 1.6 3.2 0.00 0.00 0.00 56 1008.5
20240222104103 6 248 3.2 3.2 0.00 0.00 0.00 56 1008.1
20240222103902 6 248 1.6 3.2 0.00 0.00 0.00 56 1008.1
20240222103703 6 225 3.2 3.2 0.00 0.00 0.00 55 1008.5
20240222103603 7 225 3.2 3.2 0.00 0.00 0.00 54 1008.5
20240222100103 7 270 3.2 3.2 0.00 0.00 0.00 54 1007.8
20240222095703 7 248 3.2 3.2 0.00 0.00 0.00 54 1007.8
20240222095403 6 293 0.0 0.0 0.00 0.00 0.00 55 1007.8
20240222095102 6 225 0.0 0.0 0.00 0.00 0.00 55 1007.8
20240222094902 6 203 0.0 0.0 0.00 0.00 0.00 55 1007.8
20240222094802 6 225 0.0 0.0 0.00 0.00 0.00 55 1007.8
20240222094503 6 203 0.0 0.0 0.00 0.00 0.00 55 1007.8
20240222094402 6 180 0.0 0.0 0.00 0.00 0.00 55 1007.8
20240222094103 6 180 0.0 0.0 0.00 0.00 0.00 55 1008.1
20240222094003 6 225 0.0 0.0 0.00 0.00 0.00 55 1008.1
20240222093903 6 225 0.0 0.0 0.00 0.00 0.00 55 1008.1
20240222093802 6 180 0.0 0.0 0.00 0.00 0.00 55 1008.1
20240222093703 6 180 0.0 0.0 0.00 0.00 0.00 54 1008.1
20240222093503 6 225 0.0 0.0 0.00 0.00 0.00 54 1008.1
20240222093303 7 23 0.0 0.0 0.00 0.00 0.00 53 1008.1
20240222092902 7 158 0.0 0.0 0.00 0.00 0.00 53 1008.1
20240222092403 7 180 3.2 3.2 0.00 0.00 0.00 53 1008.1
20240222092305 7 338 1.6 1.6 0.00 0.00 0.00 53 1007.8
20240222092203 7 338 1.6 1.6 0.00 0.00 0.00 53 1008.1
20240222092103 7 180 1.6 1.6 0.00 0.00 0.00 53 1007.8
20240222091803 7 180 0.0 0.0 0.00 0.00 0.00 50 1007.8
20240222091602 7 180 0.0 0.0 0.00 0.00 0.00 50 1007.8
20240222091504 7 180 0.0 1.6 0.00 0.00 0.00 50 1007.8
20240222091302 7 203 0.0 1.6 0.00 0.00 0.00 50 1007.8
20240222090903 7 248 1.6 3.2 0.00 0.00 0.00 50 1007.8
20240222090702 7 315 1.6 3.2 0.00 0.00 0.00 50 1007.8
20240222090602 7 248 1.6 3.2 0.00 0.00 0.00 50 1007.8
20240222090303 7 293 1.6 3.2 0.00 0.00 0.00 50 1007.8
20240222090003 7 225 1.6 1.6 0.00 0.00 0.00 50 1007.8
20240222085802 7 270 1.6 1.6 0.00 0.00 0.00 50 1008.1
20240222085702 7 270 0.0 1.6 0.00 0.00 0.00 50 1008.1
20240222085602 7 270 0.0 1.6 0.00 0.00 0.00 50 1008.1
20240222085403 7 338 1.6 1.6 0.00 0.00 0.00 50 1008.1
20240222085202 7 315 0.0 0.0 0.00 0.00 0.00 50 1008.1
20240222084902 7 248 0.0 1.6 0.00 0.00 0.00 50 1008.1
20240222084802 7 270 0.0 1.6 0.00 0.00 0.00 50 1008.1
20240222084603 7 270 1.6 1.6 0.00 0.00 0.00 50 1008.1
20240222082402 8 248 1.6 3.2 0.00 0.00 0.00 50 1008.1
20240222082203 8 248 1.6 3.2 0.00 0.00 0.00 50 1008.1
20240222082102 8 203 1.6 3.2 0.00 0.00 0.00 50 1008.1
20240222082004 8 270 3.2 3.2 0.00 0.00 0.00 50 1008.1
20240222081602 8 203 3.2 3.2 0.00 0.00 0.00 50 1008.1
20240222081502 8 270 3.2 3.2 0.00 0.00 0.00 50 1008.1
20240222081302 8 270 3.2 3.2 0.00 0.00 0.00 50 1008.1
20240222081202 8 0 3.2 3.2 0.00 0.00 0.00 50 1008.1
20240222080902 8 225 3.2 3.2 0.00 0.00 0.00 50 1008.1
20240222080703 8 68 1.6 3.2 0.00 0.00 0.00 50 1008.1
20240222080602 8 293 1.6 3.2 0.00 0.00 0.00 50 1008.5
20240222080502 8 203 1.6 3.2 0.00 0.00 0.00 50 1008.5
20240222080403 8 203 3.2 3.2 0.00 0.00 0.00 50 1008.1
20240222080103 8 315 3.2 3.2 0.00 0.00 0.00 50 1008.5
20240222080003 8 315 3.2 3.2 0.00 0.00 0.00 50 1008.1
20240222075903 8 225 3.2 3.2 0.00 0.00 0.00 50 1008.1
20240222075802 7 225 3.2 3.2 0.00 0.00 0.00 50 1008.5
20240222075702 7 203 1.6 3.2 0.00 0.00 0.00 50 1008.5
20240222075402 7 270 1.6 1.6 0.00 0.00 0.00 50 1008.1
20240222075305 7 225 1.6 3.2 0.00 0.00 0.00 50 1008.1
20240222075202 7 225 0.0 3.2 0.00 0.00 0.00 50 1008.1
20240222075102 7 180 0.0 3.2 0.00 0.00 0.00 50 1008.1
20240222074803 7 225 3.2 4.8 0.00 0.00 0.00 50 1008.5
20240222074602 7 248 3.2 4.8 0.00 0.00 0.00 50 1008.5
20240222074504 7 270 3.2 4.8 0.00 0.00 0.00 50 1008.1
20240222074303 7 248 0.0 3.2 0.00 0.00 0.00 50 1008.1
20240222074202 7 270 0.0 3.2 0.00 0.00 0.00 50 1008.1
20240222074102 7 270 3.2 3.2 0.00 0.00 0.00 50 1008.1
20240222073903 8 270 1.6 3.2 0.00 0.00 0.00 50 1008.5
20240222073702 8 248 3.2 3.2 0.00 0.00 0.00 50 1008.1
20240222073602 8 270 1.6 3.2 0.00 0.00 0.00 50 1008.5
20240222073402 8 248 3.2 3.2 0.00 0.00 0.00 50 1008.5
20240222073203 8 248 3.2 3.2 0.00 0.00 0.00 49 1008.1
20240222073004 8 270 3.2 4.8 0.00 0.00 0.00 49 1008.5
20240222072802 8 203 1.6 4.8 0.00 0.00 0.00 49 1008.5
20240222072603 8 315 3.2 4.8 0.00 0.00 0.00 48 1008.5
20240222072503 8 315 3.2 4.8 0.00 0.00 0.00 48 1008.1
20240222072402 8 270 1.6 4.8 0.00 0.00 0.00 48 1008.1
20240222072305 8 270 3.2 4.8 0.00 0.00 0.00 48 1008.5
20240222071603 8 270 4.8 4.8 0.00 0.00 0.00 48 1008.1
20240222071502 8 270 3.2 4.8 0.00 0.00 0.00 48 1008.1
20240222071403 8 270 3.2 4.8 0.00 0.00 0.00 48 1007.8
20240222071203 8 248 3.2 4.8 0.00 0.00 0.00 48 1008.1
20240222071103 8 248 4.8 6.4 0.00 0.00 0.00 48 1008.1
20240222071003 8 270 4.8 6.4 0.00 0.00 0.00 48 1007.8
20240222070902 8 270 4.8 6.4 0.00 0.00 0.00 48 1007.8
20240222070702 8 338 4.8 8.0 0.00 0.00 0.00 48 1008.1
20240222070503 8 248 6.4 8.0 0.00 0.00 0.00 48 1007.8
20240222070302 8 338 4.8 8.0 0.00 0.00 0.00 48 1007.8
20240222065802 8 315 6.4 8.0 0.00 0.00 0.00 48 1007.8
20240222065603 8 248 6.4 8.0 0.00 0.00 0.00 48 1007.8
20240222065402 8 293 8.0 8.0 0.00 0.00 0.00 48 1007.8
20240222065305 8 338 6.4 6.4 0.00 0.00 0.00 48 1007.8
20240222065202 8 23 6.4 6.4 0.00 0.00 0.00 48 1007.8
20240222064602 9 270 6.4 6.4 0.00 0.00 0.00 46 1007.8
20240222064403 9 338 4.8 4.8 0.00 0.00 0.00 46 1007.8
20240222064203 9 315 4.8 4.8 0.00 0.00 0.00 46 1007.8
20240222064102 9 225 3.2 4.8 0.00 0.00 0.00 46 1007.8
20240222063903 9 270 4.8 4.8 0.00 0.00 0.00 46 1007.8
20240222063702 9 225 4.8 4.8 0.00 0.00 0.00 46 1007.8
20240222063503 9 248 4.8 4.8 0.00 0.00 0.00 46 1007.8
20240222063102 9 338 3.2 6.4 0.00 0.00 0.00 46 1007.8
20240222063003 9 338 6.4 6.4 0.00 0.00 0.00 46 1007.5
20240222062903 9 338 3.2 6.4 0.00 0.00 0.00 46 1007.8
20240222062603 10 270 6.4 6.4 0.00 0.00 0.00 45 1007.5
20240222062503 10 293 4.8 4.8 0.00 0.00 0.00 45 1007.5
20240222062305 10 270 4.8 4.8 0.00 0.00 0.00 45 1007.5
20240222062102 10 270 3.2 4.8 0.00 0.00 0.00 45 1007.5
20240222062003 10 293 4.8 4.8 0.00 0.00 0.00 45 1007.5
20240222061903 10 270 4.8 4.8 0.00 0.00 0.00 45 1007.5
20240222061702 10 270 4.8 6.4 0.00 0.00 0.00 46 1007.5
20240222061503 10 225 3.2 6.4 0.00 0.00 0.00 46 1007.5
20240222061402 10 248 6.4 6.4 0.00 0.00 0.00 46 1007.1
20240222061303 10 203 3.2 4.8 0.00 0.00 0.00 46 1007.5
20240222061203 10 203 3.2 4.8 0.00 0.00 0.00 46 1007.1
20240222061003 10 248 4.8 6.4 0.00 0.00 0.00 46 1007.5
20240222060803 10 270 4.8 6.4 0.00 0.00 0.00 46 1007.1
20240222060603 10 270 6.4 6.4 0.00 0.00 0.00 46 1007.1
20240222060503 9 293 4.8 4.8 0.00 0.00 0.00 46 1007.5
20240222060303 9 338 4.8 4.8 0.00 0.00 0.00 46 1007.5
20240222055903 9 270 4.8 4.8 0.00 0.00 0.00 46 1007.5
20240222055702 9 225 4.8 4.8 0.00 0.00 0.00 46 1007.5
20240222055503 9 293 4.8 4.8 0.00 0.00 0.00 46 1007.5
20240222055305 9 203 3.2 4.8 0.00 0.00 0.00 46 1007.8
20240222055203 9 338 4.8 4.8 0.00 0.00 0.00 46 1007.8
20240222055102 10 338 3.2 4.8 0.00 0.00 0.00 46 1007.8
20240222054802 10 270 4.8 6.4 0.00 0.00 0.00 46 1007.8
20240222054602 10 0 3.2 6.4 0.00 0.00 0.00 46 1007.8
20240222054502 10 225 6.4 8.0 0.00 0.00 0.00 46 1008.1
20240222054402 10 248 6.4 8.0 0.00 0.00 0.00 46 1007.8
20240222054303 10 248 6.4 8.0 0.00 0.00 0.00 46 1008.1
20240222054203 10 23 6.4 8.0 0.00 0.00 0.00 46 1008.1
20240222054102 10 23 8.0 8.0 0.00 0.00 0.00 46 1008.1
20240222053903 10 203 4.8 8.0 0.00 0.00 0.00 46 1008.1
20240222053702 10 225 3.2 8.0 0.00 0.00 0.00 46 1008.5
20240222053603 10 293 8.0 8.0 0.00 0.00 0.00 46 1008.1
20240222053402 10 338 3.2 6.4 0.00 0.00 0.00 46 1008.1
20240222053302 10 270 6.4 6.4 0.00 0.00 0.00 46 1008.1
20240222053203 10 270 6.4 6.4 0.00 0.00 0.00 48 1008.1
20240222053002 10 248 4.8 4.8 0.00 0.00 0.00 48 1008.1
20240222052802 9 248 3.2 4.8 0.00 0.00 0.00 48 1008.5
20240222052403 9 270 4.8 4.8 0.00 0.00 0.00 48 1008.5
20240222052305 9 270 3.2 4.8 0.00 0.00 0.00 48 1008.5
20240222052003 9 270 3.2 3.2 0.00 0.00 0.00 50 1008.5
20240222051602 9 225 3.2 3.2 0.00 0.00 0.00 50 1008.5
20240222051402 9 225 0.0 1.6 0.00 0.00 0.00 50 1008.8
20240222051203 9 225 0.0 1.6 0.00 0.00 0.00 50 1008.5
20240222051003 9 293 1.6 3.2 0.00 0.00 0.00 50 1008.5
20240222050902 9 158 1.6 3.2 0.00 0.00 0.00 50 1008.5
20240222050802 9 158 0.0 3.2 0.00 0.00 0.00 50 1008.5
20240222050603 9 225 3.2 3.2 0.00 0.00 0.00 50 1008.5
20240222050402 9 270 3.2 3.2 0.00 0.00 0.00 50 1008.5
20240222050302 9 248 1.6 3.2 0.00 0.00 0.00 50 1008.5
20240222050203 9 248 3.2 3.2 0.00 0.00 0.00 50 1008.5
20240222050003 9 248 0.0 3.2 0.00 0.00 0.00 50 1008.5
20240222045903 9 270 1.6 3.2 0.00 0.00 0.00 50 1008.5
20240222045703 9 270 3.2 4.8 0.00 0.00 0.00 50 1008.5
20240222045602 9 270 1.6 4.8 0.00 0.00 0.00 50 1008.5
20240222045103 9 270 3.2 4.8 0.00 0.00 0.00 50 1008.5
20240222044903 9 270 4.8 4.8 0.00 0.00 0.00 50 1008.5
20240222044803 9 315 3.2 4.8 0.00 0.00 0.00 50 1008.5
20240222044703 9 315 4.8 4.8 0.00 0.00 0.00 50 1008.5
20240222044504 9 225 3.2 4.8 0.00 0.00 0.00 50 1008.5
20240222044302 9 270 3.2 4.8 0.00 0.00 0.00 50 1008.5
20240222044202 9 45 1.6 4.8 0.00 0.00 0.00 50 1008.5
20240222044102 9 45 4.8 4.8 0.00 0.00 0.00 50 1008.5
20240222043703 9 293 3.2 3.2 0.00 0.00 0.00 50 1008.5
20240222043603 9 225 3.2 3.2 0.00 0.00 0.00 50 1008.5
20240222043403 9 248 1.6 4.8 0.00 0.00 0.00 50 1008.5
20240222042802 10 270 4.8 6.4 0.00 0.00 0.00 50 1008.5
20240222042702 10 270 3.2 11.3 0.00 0.00 0.00 50 1008.5
20240222042603 10 270 3.2 11.3 0.00 0.00 0.00 50 1008.5
20240222042402 10 248 6.4 11.3 0.00 0.00 0.00 50 1008.5
20240222042202 10 293 11.3 11.3 0.00 0.00 0.00 48 1008.5
20240222042103 10 248 6.4 6.4 0.00 0.00 0.00 48 1008.5
20240222041903 10 270 6.4 6.4 0.00 0.00 0.00 48 1008.5
20240222041703 10 270 3.2 6.4 0.00 0.00 0.00 48 1008.5
20240222041503 10 270 4.8 6.4 0.00 0.00 0.00 48 1008.5
20240222041403 10 248 6.4 6.4 0.00 0.00 0.00 48 1008.5
20240222041203 10 293 6.4 6.4 0.00 0.00 0.00 48 1008.5
20240222040903 10 0 4.8 4.8 0.00 0.00 0.00 48 1008.8
20240222040703 10 270 4.8 6.4 0.00 0.00 0.00 48 1008.8
20240222040403 10 315 4.8 6.4 0.00 0.00 0.00 48 1008.5
20240222040202 10 315 6.4 6.4 0.00 0.00 0.00 46 1008.8
20240222040104 10 315 6.4 6.4 0.00 0.00 0.00 46 1008.5
20240222040003 10 315 4.8 4.8 0.00 0.00 0.00 46 1008.8
20240222035903 10 270 3.2 4.8 0.00 0.00 0.00 46 1008.8
20240222035702 10 270 4.8 4.8 0.00 0.00 0.00 46 1008.8
20240222035603 10 0 3.2 4.8 0.00 0.00 0.00 46 1008.8
20240222035402 10 0 3.2 4.8 0.00 0.00 0.00 45 1008.8
20240222035202 10 248 3.2 4.8 0.00 0.00 0.00 45 1008.5
20240222034503 11 270 3.2 6.4 0.00 0.00 0.00 45 1008.5
20240222034403 11 270 3.2 6.4 0.00 0.00 0.00 45 1008.8
20240222034302 11 270 4.8 6.4 0.00 0.00 0.00 45 1008.8
20240222033602 11 270 4.8 6.4 0.00 0.00 0.00 45 1008.5
20240222033403 11 248 4.8 6.4 0.00 0.00 0.00 45 1008.5
20240222033203 11 270 4.8 6.4 0.00 0.00 0.00 45 1008.5
20240222032902 11 225 3.2 6.4 0.00 0.00 0.00 45 1008.5
20240222032802 11 225 4.8 6.4 0.00 0.00 0.00 45 1008.5
20240222032703 11 225 4.8 6.4 0.00 0.00 0.00 46 1008.5
20240222032306 11 225 4.8 6.4 0.00 0.00 0.00 45 1008.5
20240222032102 11 338 4.8 6.4 0.00 0.00 0.00 45 1008.5
20240222031902 11 270 6.4 6.4 0.00 0.00 0.00 45 1008.5
20240222031702 11 270 3.2 4.8 0.00 0.00 0.00 45 1008.5
20240222031503 11 248 3.2 4.8 0.00 0.00 0.00 45 1008.5
20240222031403 11 270 3.2 4.8 0.00 0.00 0.00 45 1008.5
20240222030802 11 248 3.2 8.0 0.00 0.00 0.00 45 1008.5
20240222030702 11 270 4.8 8.0 0.00 0.00 0.00 45 1008.5
20240222030603 11 270 6.4 8.0 0.00 0.00 0.00 45 1008.5
20240222030503 11 270 8.0 8.0 0.00 0.00 0.00 45 1008.5
20240222030402 11 248 8.0 8.0 0.00 0.00 0.00 45 1008.1
20240222030302 11 248 4.8 8.0 0.00 0.00 0.00 45 1008.1
20240222030103 11 270 8.0 8.0 0.00 0.00 0.00 45 1008.1
20240222025903 11 270 6.4 6.4 0.00 0.00 0.00 45 1008.1
20240222025603 11 338 4.8 8.0 0.00 0.00 0.00 45 1008.1
20240222025504 11 225 4.8 8.0 0.00 0.00 0.00 45 1008.1
20240222025403 11 225 6.4 8.0 0.00 0.00 0.00 45 1008.5
20240222025202 11 225 4.8 6.4 0.00 0.00 0.00 45 1008.1
20240222025004 11 225 6.4 6.4 0.00 0.00 0.00 45 1008.5
20240222024803 11 270 4.8 4.8 0.00 0.00 0.00 45 1008.5
20240222024603 11 270 4.8 4.8 0.00 0.00 0.00 45 1008.5
20240222024504 11 293 3.2 3.2 0.00 0.00 0.00 45 1008.5
20240222024302 11 270 3.2 3.2 0.00 0.00 0.00 45 1008.5
20240222024203 11 248 3.2 3.2 0.00 0.00 0.00 45 1008.5
20240222020503 12 248 6.4 6.4 0.00 0.00 0.00 44 1007.8
20240222020402 12 225 4.8 4.8 0.00 0.00 0.00 44 1007.8
20240222015703 12 225 4.8 8.0 0.00 0.00 0.00 43 1008.1
20240222015503 13 225 8.0 8.0 0.00 0.00 0.00 40 1008.1
20240222004703 13 270 6.4 6.4 0.00 0.00 0.00 40 1007.8
20240222004504 13 293 4.8 6.4 0.00 0.00 0.00 40 1007.8
20240222004203 13 270 4.8 8.0 0.00 0.00 0.00 40 1007.8
20240222004103 13 270 3.2 8.0 0.00 0.00 0.00 40 1007.8
20240222004004 14 270 8.0 8.0 0.00 0.00 0.00 40 1007.8
20240222003802 14 293 4.8 6.4 0.00 0.00 0.00 40 1007.8
20240222003603 14 225 4.8 8.0 0.00 0.00 0.00 40 1007.8
20240222003403 14 270 6.4 8.0 0.00 0.00 0.00 40 1007.8
20240222003004 14 248 3.2 4.8 0.00 0.00 0.00 39 1007.5
20240222002902 14 270 4.8 4.8 0.00 0.00 0.00 39 1007.5
20240222002803 14 270 3.2 4.8 0.00 0.00 0.00 37 1007.5
20240222002603 14 270 4.8 4.8 0.00 0.00 0.00 37 1007.5
20240222002203 15 225 3.2 4.8 0.00 0.00 0.00 35 1007.5
20240222002102 15 270 3.2 4.8 0.00 0.00 0.00 35 1007.5
20240222001603 15 270 4.8 4.8 0.00 0.00 0.00 35 1007.1
20240222001503 15 293 4.8 4.8 0.00 0.00 0.00 35 1007.1
20240222000603 15 293 4.8 11.3 0.00 0.00 0.00 35 1007.1
20240222000403 15 270 6.4 11.3 0.00 0.00 0.00 35 1006.8
20240222000103 15 270 11.3 11.3 0.00 0.00 0.00 35 1006.8
20240221235903 15 225 6.4 8.0 0.00 0.00 0.00 35 1007.1
20240221235703 15 338 4.8 8.0 0.00 0.00 0.00 35 1007.1
20240221235603 15 225 8.0 8.0 0.00 0.00 0.00 35 1006.8
20240221235504 15 225 4.8 6.4 0.00 0.00 0.00 35 1007.1
20240221235402 15 225 6.4 6.4 0.00 0.00 0.00 35 1006.8
20240221235203 16 270 3.2 6.4 0.00 0.00 0.00 35 1007.1
20240221234803 16 203 4.8 8.0 0.00 0.00 0.00 35 1006.8
20240221234703 16 248 4.8 8.0 0.00 0.00 0.00 35 1006.8
20240221234504 16 293 6.4 8.0 0.00 0.00 0.00 35 1006.8
20240221234103 16 270 6.4 6.4 0.00 0.00 0.00 34 1006.8
20240221233902 16 270 6.4 6.4 0.00 0.00 0.00 34 1006.8
20240221233802 16 225 4.8 4.8 0.00 0.00 0.00 34 1006.4
20240221233003 16 248 6.4 6.4 0.00 0.00 0.00 34 1006.8
20240221232902 16 293 6.4 6.4 0.00 0.00 0.00 34 1006.8
20240221232803 16 315 4.8 6.4 0.00 0.00 0.00 34 1006.8
20240221232504 16 270 4.8 8.0 0.00 0.00 0.00 34 1006.4
20240221232305 16 270 6.4 8.0 0.00 0.00 0.00 34 1006.8
20240221232003 16 225 4.8 6.4 0.00 0.00 0.00 34 1006.8
20240221231903 16 270 4.8 6.4 0.00 0.00 0.00 34 1006.8
20240221231802 16 270 6.4 6.4 0.00 0.00 0.00 34 1006.8
20240221231603 16 270 4.8 6.4 0.00 0.00 0.00 34 1006.4
20240221231402 16 270 6.4 6.4 0.00 0.00 0.00 34 1006.4
20240221231203 16 270 6.4 6.4 0.00 0.00 0.00 34 1006.8
20240221231102 16 270 4.8 4.8 0.00 0.00 0.00 34 1006.4
20240221230903 16 225 4.8 11.3 0.00 0.00 0.00 34 1006.4
20240221230703 17 270 4.8 11.3 0.00 0.00 0.00 34 1006.4
20240221230504 17 0 9.7 11.3 0.00 0.00 0.00 34 1006.4
20240221230103 17 293 3.2 6.4 0.00 0.00 0.00 34 1006.4
20240221230004 17 293 6.4 6.4 0.00 0.00 0.00 34 1006.4
20240221225602 17 0 6.4 8.0 0.00 0.00 0.00 34 1006.8
20240221225102 17 315 4.8 8.0 0.00 0.00 0.00 34 1006.4
20240221225004 17 315 8.0 8.0 0.00 0.00 0.00 34 1006.4
20240221224902 17 315 6.4 6.4 0.00 0.00 0.00 34 1006.4
20240221224702 17 270 6.4 6.4 0.00 0.00 0.00 34 1006.4
20240221224504 17 270 4.8 6.4 0.00 0.00 0.00 34 1006.4
20240221224402 17 248 6.4 6.4 0.00 0.00 0.00 34 1006.4
20240221224102 17 225 4.8 6.4 0.00 0.00 0.00 34 1006.4
20240221223902 17 225 6.4 6.4 0.00 0.00 0.00 34 1006.4
20240221223802 17 293 6.4 6.4 0.00 0.00 0.00 34 1006.4
20240221223702 17 225 4.8 6.4 0.00 0.00 0.00 34 1006.4
20240221223602 17 225 6.4 6.4 0.00 0.00 0.00 34 1006.8
20240221223004 17 270 4.8 6.4 0.00 0.00 0.00 32 1006.4
20240221222902 17 315 4.8 6.4 0.00 0.00 0.00 32 1006.4
20240221222802 17 270 6.4 6.4 0.00 0.00 0.00 32 1006.4
20240221222702 17 270 4.8 4.8 0.00 0.00 0.00 31 1006.4
20240221222503 17 315 4.8 4.8 0.00 0.00 0.00 32 1006.4
20240221222306 17 23 4.8 4.8 0.00 0.00 0.00 32 1006.8
20240221222102 17 248 4.8 4.8 0.00 0.00 0.00 32 1006.8
20240221222004 17 315 3.2 6.4 0.00 0.00 0.00 32 1006.4
20240221221902 17 248 3.2 6.4 0.00 0.00 0.00 32 1006.4
20240221221702 17 248 4.8 6.4 0.00 0.00 0.00 32 1006.8
20240221221602 17 293 6.4 6.4 0.00 0.00 0.00 32 1006.8
20240221221203 17 270 3.2 9.7 0.00 0.00 0.00 32 1006.8
20240221221103 17 270 9.7 9.7 0.00 0.00 0.00 34 1006.8
20240221220802 17 248 4.8 6.4 0.00 0.00 0.00 34 1006.8
20240221220503 17 315 4.8 4.8 0.00 0.00 0.00 32 1006.8
20240221220402 17 293 3.2 4.8 0.00 0.00 0.00 32 1006.8
20240221220303 17 293 3.2 6.4 0.00 0.00 0.00 32 1007.1
20240221220103 17 225 3.2 6.4 0.00 0.00 0.00 32 1007.1
20240221215902 17 180 4.8 6.4 0.00 0.00 0.00 32 1006.8
20240221215702 17 338 6.4 6.4 0.00 0.00 0.00 34 1006.8
20240221215503 17 270 3.2 6.4 0.00 0.00 0.00 34 1007.1
20240221215402 17 270 3.2 6.4 0.00 0.00 0.00 34 1006.8
20240221215202 17 0 6.4 6.4 0.00 0.00 0.00 34 1007.1
20240221215003 17 270 6.4 6.4 0.00 0.00 0.00 34 1007.1
20240221214803 17 270 3.2 6.4 0.00 0.00 0.00 34 1006.8
20240221214702 17 248 6.4 6.4 0.00 0.00 0.00 34 1007.1
20240221214602 17 270 6.4 6.4 0.00 0.00 0.00 34 1007.1
20240221214504 17 270 3.2 8.0 0.00 0.00 0.00 34 1007.1
20240221214302 17 270 4.8 8.0 0.00 0.00 0.00 34 1007.1
20240221214102 17 0 6.4 8.0 0.00 0.00 0.00 34 1007.1
20240221213903 17 270 4.8 6.4 0.00 0.00 0.00 34 1007.1
20240221213504 17 315 6.4 6.4 0.00 0.00 0.00 32 1007.5
20240221213303 17 315 4.8 6.4 0.00 0.00 0.00 34 1007.5
20240221213103 17 338 3.2 6.4 0.00 0.00 0.00 34 1007.1
20240221212803 17 180 6.4 6.4 0.00 0.00 0.00 34 1007.1
20240221212602 17 180 3.2 4.8 0.00 0.00 0.00 34 1007.5
20240221212402 17 203 4.8 4.8 0.00 0.00 0.00 34 1007.5
20240221212305 17 270 3.2 3.2 0.00 0.00 0.00 34 1007.5
20240221212103 17 248 3.2 8.0 0.00 0.00 0.00 34 1007.5
20240221211802 17 270 3.2 8.0 0.00 0.00 0.00 34 1007.5
20240221211703 17 270 8.0 8.0 0.00 0.00 0.00 34 1007.5
20240221211505 17 270 6.4 6.4 0.00 0.00 0.00 34 1007.8
20240221211103 17 270 4.8 6.4 0.00 0.00 0.00 35 1007.5
20240221210903 17 248 6.4 6.4 0.00 0.00 0.00 35 1007.5
20240221210503 17 248 3.2 4.8 0.00 0.00 0.00 34 1007.5
20240221210302 17 248 1.6 4.8 0.00 0.00 0.00 34 1007.8
20240221210004 17 248 4.8 4.8 0.00 0.00 0.00 34 1007.8
20240221205803 17 293 1.6 4.8 0.00 0.00 0.00 34 1007.8
20240221205603 17 270 3.2 4.8 0.00 0.00 0.00 35 1007.8
20240221205305 18 270 3.2 6.4 0.00 0.00 0.00 35 1007.8
20240221205202 18 180 3.2 6.4 0.00 0.00 0.00 35 1007.8
20240221205102 18 180 3.2 6.4 0.00 0.00 0.00 34 1008.1
20240221205004 18 270 4.8 6.4 0.00 0.00 0.00 34 1008.1
20240221204505 18 225 6.4 6.4 0.00 0.00 0.00 34 1008.1
20240221204402 18 225 4.8 4.8 0.00 0.00 0.00 34 1008.1
20240221204203 18 225 4.8 4.8 0.00 0.00 0.00 34 1007.8
20240221204103 18 225 4.8 4.8 0.00 0.00 0.00 35 1008.1
20240221203602 18 203 3.2 3.2 0.00 0.00 0.00 35 1008.1
20240221203502 18 225 1.6 1.6 0.00 0.00 0.00 35 1008.1
20240221202305 18 225 4.8 6.4 0.00 0.00 0.00 35 1008.5
20240221202103 18 225 6.4 6.4 0.00 0.00 0.00 35 1008.5
20240221202004 18 315 3.2 4.8 0.00 0.00 0.00 35 1008.5
20240221201903 18 180 4.8 4.8 0.00 0.00 0.00 35 1008.5
20240221201803 19 180 0.0 3.2 0.00 0.00 0.00 35 1008.5
20240221201603 20 158 0.0 3.2 0.00 0.00 0.00 35 1008.5
20240221201403 21 158 1.6 3.2 0.00 0.00 0.00 34 1008.5
20240221201303 21 158 1.6 4.8 0.00 0.00 0.00 34 1008.5
20240221201202 18 158 1.6 4.8 0.00 0.00 0.00 37 1008.5
20240221201004 18 293 3.2 4.8 0.00 0.00 0.00 37 1008.5
20240221200902 18 113 4.8 4.8 0.00 0.00 0.00 37 1008.8
20240221200803 17 113 4.8 4.8 0.00 0.00 0.00 37 1008.8
20240221200502 17 180 0.0 3.2 0.00 0.00 0.00 37 1008.5
20240221200303 17 293 3.2 3.2 0.00 0.00 0.00 37 1008.8
20240221195703 17 180 1.6 4.8 0.00 0.00 0.00 37 1008.8
20240221195403 17 270 1.6 6.4 0.00 0.00 0.00 37 1008.8
20240221195203 17 270 4.8 6.4 0.00 0.00 0.00 40 1008.8
20240221195003 17 270 6.4 6.4 0.00 0.00 0.00 40 1008.8
20240221194903 17 225 3.2 3.2 0.00 0.00 0.00 40 1008.8
20240221194402 17 225 3.2 3.2 0.00 0.00 0.00 40 1008.8
20240221194102 17 315 3.2 6.4 0.00 0.00 0.00 40 1008.8
20240221193803 17 270 6.4 6.4 0.00 0.00 0.00 40 1009.1
20240221193602 17 225 4.8 4.8 0.00 0.00 0.00 40 1009.1
20240221193403 17 225 4.8 4.8 0.00 0.00 0.00 41 1009.1
20240221193203 16 225 3.2 3.2 0.00 0.00 0.00 43 1009.1
20240221192502 16 270 6.4 6.4 0.00 0.00 0.00 43 1009.1
20240221192003 16 135 3.2 4.8 0.00 0.00 0.00 43 1009.1
20240221191802 16 225 4.8 6.4 0.00 0.00 0.00 43 1009.1
20240221191503 16 225 6.4 6.4 0.00 0.00 0.00 43 1009.1
20240221191202 16 293 3.2 3.2 0.00 0.00 0.00 43 1009.5
20240221190602 16 225 4.8 4.8 0.00 0.00 0.00 44 1009.5
20240221190502 16 225 3.2 3.2 0.00 0.00 0.00 44 1009.5
20240221185903 16 248 3.2 4.8 0.00 0.00 0.00 44 1009.8
20240221185802 16 270 3.2 4.8 0.00 0.00 0.00 44 1009.8
20240221185502 16 270 3.2 4.8 0.00 0.00 0.00 44 1009.5
20240221185305 16 270 4.8 4.8 0.00 0.00 0.00 44 1009.8
20240221185102 16 203 4.8 4.8 0.00 0.00 0.00 43 1009.8
20240221185003 15 68 4.8 4.8 0.00 0.00 0.00 44 1009.8
20240221184903 15 180 3.2 3.2 0.00 0.00 0.00 44 1009.8
20240221184803 15 180 3.2 6.4 0.00 0.00 0.00 44 1009.8
20240221184503 15 248 3.2 6.4 0.00 0.00 0.00 44 1009.8
20240221184402 15 248 6.4 6.4 0.00 0.00 0.00 43 1010.2
20240221184303 15 180 4.8 6.4 0.00 0.00 0.00 43 1010.2
20240221184203 15 180 6.4 6.4 0.00 0.00 0.00 43 1009.8
20240221184004 16 270 3.2 6.4 0.00 0.00 0.00 41 1010.5
20240221183802 16 158 1.6 3.2 0.00 0.00 0.00 41 1010.5
20240221183504 15 225 1.6 4.8 0.00 0.00 0.00 44 1010.5
20240221183403 15 248 1.6 4.8 0.00 0.00 0.00 44 1010.5
20240221183302 15 248 4.8 4.8 0.00 0.00 0.00 44 1010.5
20240221182903 15 180 3.2 4.8 0.00 0.00 0.00 43 1010.5
20240221182702 15 293 4.8 4.8 0.00 0.00 0.00 43 1010.5
20240221182602 15 270 4.8 4.8 0.00 0.00 0.00 45 1010.5
20240221182003 15 225 3.2 4.8 0.00 0.00 0.00 45 1010.5
20240221181503 15 315 1.6 4.8 0.00 0.00 0.00 45 1010.8
20240221181402 15 158 3.2 4.8 0.00 0.00 0.00 45 1010.8
20240221181103 15 158 3.2 4.8 0.00 0.00 0.00 45 1010.8
20240221180403 15 158 1.6 3.2 0.00 0.00 0.00 45 1011.5
20240221180302 15 180 3.2 3.2 0.00 0.00 0.00 45 1011.5
20240221175902 14 180 1.6 3.2 0.00 0.00 0.00 46 1011.2
20240221175802 14 225 1.6 3.2 0.00 0.00 0.00 46 1011.2
20240221175403 13 225 3.2 3.2 0.00 0.00 0.00 49 1011.2
20240221175203 13 203 3.2 3.2 0.00 0.00 0.00 49 1011.5
20240221175103 13 180 0.0 3.2 0.00 0.00 0.00 49 1011.5
20240221175004 13 180 3.2 3.2 0.00 0.00 0.00 49 1011.5
20240221174603 13 203 3.2 4.8 0.00 0.00 0.00 48 1011.5
20240221174202 13 203 4.8 4.8 0.00 0.00 0.00 48 1011.5
20240221173203 12 203 3.2 3.2 0.00 0.00 0.00 53 1011.5
20240221172903 12 225 3.2 4.8 0.00 0.00 0.00 53 1011.5
20240221172603 12 180 4.8 4.8 0.00 0.00 0.00 53 1011.9
20240221172402 12 158 1.6 1.6 0.00 0.00 0.00 53 1011.5
20240221170802 12 203 1.6 3.2 0.00 0.00 0.00 53 1011.9
20240221170503 12 203 3.2 3.2 0.00 0.00 0.00 53 1011.9
20240221170303 12 338 3.2 3.2 0.00 0.00 0.00 53 1011.9
20240221165702 11 248 4.8 4.8 0.00 0.00 0.00 54 1011.9
20240221165402 11 248 4.8 4.8 0.00 0.00 0.00 54 1011.9
20240221165305 11 248 3.2 3.2 0.00 0.00 0.00 54 1011.9
20240221164903 10 248 3.2 3.2 0.00 0.00 0.00 55 1011.9
20240221164802 10 248 3.2 4.8 0.00 0.00 0.00 55 1011.9
20240221164703 10 203 1.6 4.8 0.00 0.00 0.00 55 1011.9
20240221164502 10 203 3.2 4.8 0.00 0.00 0.00 55 1011.9
20240221164103 10 270 3.2 4.8 0.00 0.00 0.00 55 1012.2
20240221163803 10 90 4.8 4.8 0.00 0.00 0.00 55 1012.2
20240221163503 10 203 1.6 6.4 0.00 0.00 0.00 56 1012.2
20240221163302 10 248 6.4 6.4 0.00 0.00 0.00 56 1012.2
20240221163102 10 270 3.2 4.8 0.00 0.00 0.00 58 1012.2
20240221162903 10 180 4.8 4.8 0.00 0.00 0.00 58 1012.2
20240221162703 10 225 3.2 4.8 0.00 0.00 0.00 58 1012.2
20240221162305 10 270 4.8 4.8 0.00 0.00 0.00 58 1012.2
20240221162102 10 203 1.6 3.2 0.00 0.00 0.00 59 1012.2
20240221162003 10 158 1.6 3.2 0.00 0.00 0.00 59 1012.2
20240221161803 9 248 1.6 3.2 0.00 0.00 0.00 58 1012.2
20240221161703 9 248 3.2 3.2 0.00 0.00 0.00 60 1011.9
20240221161602 9 270 3.2 3.2 0.00 0.00 0.00 60 1012.2
20240221161504 9 270 1.6 3.2 0.00 0.00 0.00 60 1012.2
20240221161403 9 180 1.6 3.2 0.00 0.00 0.00 60 1012.2
20240221161102 8 225 3.2 3.2 0.00 0.00 0.00 61 1012.2
20240221161004 8 180 1.6 3.2 0.00 0.00 0.00 61 1012.2
20240221160802 8 180 1.6 3.2 0.00 0.00 0.00 61 1011.9
20240221160602 8 203 3.2 3.2 0.00 0.00 0.00 61 1011.9
20240221160502 8 225 3.2 3.2 0.00 0.00 0.00 61 1012.2
20240221160302 8 270 3.2 4.8 0.00 0.00 0.00 61 1011.9
20240221160203 8 270 1.6 4.8 0.00 0.00 0.00 61 1011.9
20240221155903 8 270 4.8 4.8 0.00 0.00 0.00 63 1012.2
20240221155703 8 225 4.8 4.8 0.00 0.00 0.00 63 1012.2
20240221155004 7 0 3.2 6.4 0.00 0.00 0.00 63 1012.5
20240221154802 7 270 6.4 6.4 0.00 0.00 0.00 63 1012.2
20240221154702 7 293 3.2 4.8 0.00 0.00 0.00 63 1012.2
20240221154603 7 293 3.2 3.2 0.00 0.00 0.00 65 1012.2
20240221154402 7 248 3.2 4.8 0.00 0.00 0.00 65 1012.5
20240221154302 7 315 3.2 4.8 0.00 0.00 0.00 65 1012.2
20240221154202 7 315 3.2 4.8 0.00 0.00 0.00 65 1012.2
20240221154003 7 270 4.8 4.8 0.00 0.00 0.00 65 1012.2
20240221153703 7 270 3.2 3.2 0.00 0.00 0.00 66 1012.2
20240221153602 6 270 3.2 3.2 0.00 0.00 0.00 68 1012.2
20240221153402 6 293 3.2 4.8 0.00 0.00 0.00 69 1012.5
20240221153203 6 225 3.2 4.8 0.00 0.00 0.00 69 1012.2
20240221153004 6 338 4.8 4.8 0.00 0.00 0.00 69 1012.2
20240221152503 5 270 4.8 4.8 0.00 0.00 0.00 71 1012.2
20240221152305 5 225 3.2 3.2 0.00 0.00 0.00 71 1012.2
20240221152103 5 270 3.2 4.8 0.00 0.00 0.00 71 1012.5
20240221151703 5 270 4.8 4.8 0.00 0.00 0.00 71 1012.5
20240221151602 5 315 3.2 3.2 0.00 0.00 0.00 71 1012.2
20240221151503 5 315 3.2 3.2 0.00 0.00 0.00 71 1012.5
20240221151403 5 293 1.6 3.2 0.00 0.00 0.00 71 1012.5
20240221151103 5 293 3.2 4.8 0.00 0.00 0.00 73 1012.5
20240221150802 5 270 4.8 4.8 0.00 0.00 0.00 73 1012.5
20240221150302 4 203 1.6 3.2 0.00 0.00 0.00 73 1012.5
20240221150203 4 270 3.2 3.2 0.00 0.00 0.00 73 1012.5
20240221150102 4 225 3.2 3.2 0.00 0.00 0.00 73 1012.5
20240221145903 4 225 1.6 3.2 0.00 0.00 0.00 73 1012.5
20240221145702 4 270 3.2 3.2 0.00 0.00 0.00 73 1012.5
20240221145602 4 248 3.2 3.2 0.00 0.00 0.00 73 1012.5
20240221145403 4 270 1.6 3.2 0.00 0.00 0.00 73 1012.5
20240221145306 4 248 3.2 3.2 0.00 0.00 0.00 73 1012.5
20240221145003 3 248 1.6 3.2 0.00 0.00 0.00 73 1012.5
20240221144903 3 248 1.6 3.2 0.00 0.00 0.00 73 1012.9
20240221144802 3 293 3.2 3.2 0.00 0.00 0.00 73 1012.5
20240221144703 3 293 1.6 3.2 0.00 0.00 0.00 73 1012.5
20240221144603 3 270 3.2 3.2 0.00 0.00 0.00 73 1012.9
20240221144402 3 270 1.6 3.2 0.00 0.00 0.00 73 1012.5
20240221144203 3 225 3.2 3.2 0.00 0.00 0.00 73 1012.9
20240221143803 3 270 3.2 3.2 0.00 0.00 0.00 73 1012.9
20240221143702 3 270 1.6 3.2 0.00 0.00 0.00 74 1012.9
20240221143503 3 270 3.2 3.2 0.00 0.00 0.00 74 1012.9
20240221143303 3 270 3.2 3.2 0.00 0.00 0.00 74 1012.5
20240221143202 3 270 3.2 3.2 0.00 0.00 0.00 74 1012.9
20240221142603 3 270 3.2 3.2 0.00 0.00 0.00 75 1012.9
20240221142403 3 248 0.0 0.0 0.00 0.00 0.00 75 1012.9
20240221142202 3 225 0.0 1.6 0.00 0.00 0.00 75 1012.5
20240221142004 2 225 0.0 1.6 0.00 0.00 0.00 76 1012.9
20240221141903 2 225 0.0 1.6 0.00 0.00 0.00 76 1012.9
20240221141802 2 225 1.6 1.6 0.00 0.00 0.00 76 1012.9
20240221141702 2 225 0.0 0.0 0.00 0.00 0.00 76 1012.9
20240221141602 2 203 0.0 0.0 0.00 0.00 0.00 76 1012.9
20240221141203 1 225 0.0 0.0 0.00 0.00 0.00 79 1013.2
20240221141004 1 203 0.0 0.0 0.00 0.00 0.00 79 1012.9
20240221140802 1 203 0.0 0.0 0.00 0.00 0.00 80 1012.9
20240221140603 1 180 0.0 0.0 0.00 0.00 0.00 80 1013.2
20240221140402 1 180 0.0 0.0 0.00 0.00 0.00 80 1012.9
20240221140203 1 180 0.0 0.0 0.00 0.00 0.00 80 1012.9
20240221135603 1 180 0.0 0.0 0.00 0.00 0.00 80 1012.9
20240221133004 1 180 0.0 3.2 0.00 0.00 0.00 81 1012.9
20240221132703 1 180 1.6 3.2 0.00 0.00 0.00 81 1012.9
20240221132503 1 180 3.2 3.2 0.00 0.00 0.00 81 1012.5
20240221132402 1 180 3.2 3.2 0.00 0.00 0.00 81 1012.9
20240221131803 1 180 0.0 0.0 0.00 0.00 0.00 81 1012.5
20240221125203 1 248 0.0 0.0 0.00 0.00 0.00 81 1012.5
20240221124802 0 248 0.0 0.0 0.00 0.00 0.00 81 1012.5
20240221124703 0 180 0.0 0.0 0.00 0.00 0.00 81 1012.5
20240221124504 0 180 0.0 0.0 0.00 0.00 0.00 81 1012.9
20240221124402 0 225 0.0 0.0 0.00 0.00 0.00 81 1012.9
20240221124303 0 158 0.0 0.0 0.00 0.00 0.00 81 1012.9